User: anonymous
Location: Wayah Bald
(35.1806°N, 83.5603°W)
Time: 19:45:22
(UTC-04:00)
Language:

Meteor 1-27 Rocket - Orbit

View from above orbital plane
View from above orbital plane
View from above satellite
View from above satellite

Ground track
Ground track

The orbit data is extracted from the following two-line orbital elements,

1 09904U 77024B   14245.50499542 -.00000016  00000-0 -16586-4 0   468
2 09904 081.2626 034.1001 0053828 317.9048 103.5917 14.06734065919579
Epoch (UTC): 02 September 2014 12:07:11
Eccentricity: 0.0053828
inclination: 81.2626°
perigee height: 831 km
apogee height: 909 km
right ascension of ascending node: 34.1001°
argument of perigee: 317.9048°
revolutions per day: 14.06734065
mean anomaly at epoch: 103.5917°
orbit number at epoch: 91957

The dashed part of the orbit path shows where the satellite is in the earth's shadow,  

DLR